This is the latest recevied weather packets stored in our database for station/object WV8BRW. If no packets are shown the sender has not sent any weather packets the latest 10 day(s).
| Time | Temp. | Humidity | Pressure | Rain* | Wind** | Luminosity | Snow |
|---|---|---|---|---|---|---|---|
| 1777988739 | 21.67° C | 62% | 1010.5 hPa | 0 mm | - | 285 W/m² | - |
| 1777988437 | 21.67° C | 62% | 1010.3 hPa | 0 mm | - | 305 W/m² | - |
| 1777988133 | 21.67° C | 62% | 1010.3 hPa | 0 mm | - | 284 W/m² | - |
| 1777987829 | 21.11° C | 62% | 1010.5 hPa | 0 mm | - | 320 W/m² | - |
| 1777987526 | 20.56° C | 65% | 1010.3 hPa | 0 mm | - | 278 W/m² | - |
| 1777987224 | 20.56° C | 62% | 1010.2 hPa | 0 mm | - | 269 W/m² | - |
| 1777986920 | 20.56° C | 65% | 1010.3 hPa | 0 mm | - | 296 W/m² | - |
| 1777986618 | 20.56° C | 63% | 1010.3 hPa | 0 mm | - | 338 W/m² | - |
| 1777986316 | 19.44° C | 63% | 1010.3 hPa | 0 mm | - | 324 W/m² | - |
| 1777986014 | 18.33° C | 70% | 1010.6 hPa | 0 mm | - | 295 W/m² | - |
| 1777985710 | 18.33° C | 74% | 1010.5 hPa | 0 mm | - | 67 W/m² | - |
| 1777985407 | 17.78° C | 76% | 1010.6 hPa | 0 mm | - | 99 W/m² | - |
| 1777985104 | 17.78° C | 72% | 1010.6 hPa | 0 mm | - | 99 W/m² | - |
| 1777984800 | 17.78° C | 81% | 1010.7 hPa | 0 mm | - | 104 W/m² | - |
| 1777984496 | 17.78° C | 77% | 1010.6 hPa | 0 mm | - | 85 W/m² | - |
| 1777984193 | 17.78° C | 75% | 1010.4 hPa | 0 mm | - | 107 W/m² | - |
| 1777983890 | 17.78° C | 79% | 1010.5 hPa | 0 mm | - | 78 W/m² | - |
| 1777983587 | 17.22° C | 79% | 1010.5 hPa | 0 mm | - | 88 W/m² | - |
| 1777983284 | 17.22° C | 82% | 1010.5 hPa | 0 mm | - | 90 W/m² | - |
| 1777982979 | 16.67° C | 81% | 1010.5 hPa | 0 mm | - | 77 W/m² | - |
| 1777982676 | 16.67° C | 81% | 1010.3 hPa | 0 mm | - | 69 W/m² | - |
| 1777982375 | 16.67° C | 77% | 1010.1 hPa | 0 mm | - | 69 W/m² | - |
| 1777982072 | 16.11° C | 79% | 1010.2 hPa | 0 mm | - | 74 W/m² | - |
| 1777981770 | 16.11° C | 79% | 1010 hPa | 0 mm | - | 59 W/m² | - |
| 1777981466 | 15.56° C | 81% | 1009.8 hPa | 0 mm | - | 71 W/m² | - |
* Rain latest hour (hover to see other rain measurements)
** Current wind speed in m/s (hover to see current wind gust speed)